logo tempoitalia

Diretta Meteo Marsa Alam, Egittolunedì 31 agosto ore 08:00

Mappa
Sereno 27 °C Sereno 24 Ore: T.min 27 T.max 34
Ponente Nord Km/h 11.1 Punto di rugiada: 10 °C Umidità: 34% Visibilità: 10 Km
Il sole sorge alle: 06:21 Il sole tramonta alle: 19:02
31 Agosto 2026 08:00 tempo osservato: Sereno Sereno 27 34 1009 vento: Nord N 11.1
31 Agosto 2026 07:00 tempo osservato: Sereno Sereno 29 37 1008 vento: Nord NO 20.3
31 Agosto 2026 06:00 tempo osservato: Sereno Sereno 28 39 1008 vento: Nord NO 18.5
31 Agosto 2026 05:00 tempo osservato: Sereno Sereno 27 39 1008 vento: Nord O/NO 14.8
31 Agosto 2026 04:00 tempo osservato: Sereno Sereno 27 42 1008 vento: Nord O/NO 16.7
31 Agosto 2026 03:00 tempo osservato: Sereno Sereno 28 39 1008 vento: Nord O/NO 18.5
31 Agosto 2026 02:00 tempo osservato: Sereno Sereno 28 42 1008 vento: Nord O 9.3
31 Agosto 2026 01:00 tempo osservato: Sereno Sereno 29 39 1009 vento: Nord O 7.4
31 Agosto 2026 00:00 tempo osservato: Sereno Sereno 29 42 1009 vento: Nord O 9.3
30 Agosto 2026 23:00 tempo osservato: Sereno Sereno 29 48 1008 vento: Nord NO 13
30 Agosto 2026 22:00 tempo osservato: Sereno Sereno 30 45 1008 vento: Nord N/NO 14.8
30 Agosto 2026 21:00 tempo osservato: Sereno Sereno 30 48 1007 vento: Nord NO 14.8
30 Agosto 2026 20:00 tempo osservato: Sereno Sereno 30 55 1006 vento: Nord N 20.3
30 Agosto 2026 19:00 tempo osservato: Sereno Sereno 31 52 1006 vento: Nord N 20.3
30 Agosto 2026 18:00 tempo osservato: Sereno Sereno 31 58 1006 vento: Nord N 22.2
30 Agosto 2026 17:00 tempo osservato: Sereno Sereno 31 58 1006 vento: Nord N 22.2
30 Agosto 2026 16:00 tempo osservato: Sereno Sereno 32 55 1006 vento: Nord N 22.2
30 Agosto 2026 15:00 tempo osservato: Sereno Sereno 32 59 1006 vento: Nord N 25.9
30 Agosto 2026 14:00 tempo osservato: Sereno Sereno 34 46 1006 vento: Nord N 33.3
30 Agosto 2026 13:00 tempo osservato: Sereno Sereno 34 49 1006 vento: Nord N 33.3
30 Agosto 2026 12:00 tempo osservato: Sereno Sereno 33 55 1007 vento: Nord N 35.2
30 Agosto 2026 11:00 tempo osservato: Sereno Sereno 32 59 1007 vento: Nord N 33.3
30 Agosto 2026 10:00 tempo osservato: Sereno Sereno 33 52 1007 vento: Nord N 25.9